Latest Coastal Weather Observations for Truscott

IDW60701

Issued at 5:03 pm WST Monday 29 August 2016 (issued every 10 minutes, with the page automatically refreshed every 10 minutes)

About coastal observations | Map of coastal stations | Coastal observations for WA | Marine services | Other Formats
Station Details ID: 001020 Name: TRUSCOTT Lat: -14.09 Lon: 126.39 Height: 51.0 m
Data from the previous 72 hours. | See also: Recent months at Truscott
Date/Time
WST
Temp
°C
Wind Pressure Rain since
9am
mm
Weather Cloud Vis
km
Sea
Height
m
Swell
Dir  Spd
kts
Gust
kts
hPa Trend Height
m
Period
s
Dir
29/05:00pm 27.8 N 8 8 1011.1 - 0.0 - - 10 - - - -
29/04:30pm 28.0 N 8 - 1011.0 - 0.0 - Partly cloudy 10 - - - -
29/04:00pm 28.2 N 9 - 1010.7 - 0.0 - - 10 - - - -
29/03:30pm 29.0 N 9 - 1011.0 - 0.0 - - 10 - - - -
29/03:00pm 28.7 NNW 10 - 1010.6 - 0.0 - - 10 - - - -
29/02:30pm 30.0 N 10 - 1010.0 - 0.0 - - 10 - - - -
29/02:00pm 28.8 N 10 - 1010.6 - 0.0 - Partly cloudy 10 - - - -
29/01:30pm 30.0 N 9 - 1011.0 - 0.0 - Partly cloudy 7 - - - -
29/01:00pm 29.3 N 9 - 1011.1 - 0.0 - Partly cloudy 10 - - - -
29/12:30pm 30.0 N 9 - 1011.0 - 0.0 - Partly cloudy 10 - - - -
29/12:00pm 29.5 N 10 - 1011.5 - 0.0 - Mostly clear 10 - - - -
29/11:30am 29.0 N 9 - 1012.0 - 0.0 - Partly cloudy 10 - - - -
29/11:00am 29.0 N 9 - 1012.1 - 0.0 - Partly cloudy 10 - - - -
29/10:30am 29.0 N 8 - 1012.0 - 0.0 - Partly cloudy 10 - - - -
29/10:00am 29.9 N 7 - 1012.6 - 0.0 - Partly cloudy 10 - - - -
29/09:30am 29.0 N 7 - 1013.0 - 0.0 - Partly cloudy 10 - - - -
29/09:00am 28.7 N 7 - 1013.4 - 0.0 - Mostly clear 10 - - - -
29/08:30am 28.0 N 7 - 1013.0 - 0.0 - Partly cloudy 10 - - - -
29/08:00am 27.1 N 6 - 1013.2 - 0.0 - Partly cloudy 10 - - - -
29/07:30am 27.0 N 6 - 1013.0 - 0.0 - - 10 - - - -
29/07:00am 26.2 N 3 - 1012.9 - 0.0 - - 9 - - - -
29/06:30am 24.0 E 2 - 1013.0 - 0.0 - - 10 - - - -
29/06:00am 22.5 E 3 - 1012.3 - 0.0 - - 8 - - - -
29/05:39am 22.0 NE 2 - 1012.0 - 0.0 - - 10 - - - -
29/05:30am 22.0 ENE 3 - 1012.0 - 0.0 - - 6 - - - -
29/05:25am 22.0 ENE 3 - 1012.0 - 0.0 - - 5 - - - -
29/05:00am 22.1 CALM 0 - 1011.8 - 0.0 - - 8 - - - -
29/04:47am 22.0 CALM 0 - 1012.0 - 0.0 - - 8 - - - -
29/04:30am 22.0 CALM 0 - 1011.0 - 0.0 - - 5 - - - -
29/04:29am 22.0 CALM 0 - 1011.0 - 0.0 - - 5 - - - -
29/04:00am 22.8 CALM 0 - 1011.7 - 0.0 - - 10 - - - -
29/03:30am 23.0 CALM 0 - 1011.0 - 0.0 - - 10 - - - -
29/03:00am 22.7 CALM 0 - 1011.8 - 0.0 - - 10 - - - -
29/02:30am 23.0 CALM 0 - 1012.0 - 0.0 - Partly cloudy 10 - - - -
29/02:00am 23.4 CALM 0 - 1011.9 - 0.0 - Partly cloudy 10 - - - -
29/01:30am 23.0 SSE 1 - 1012.0 - 0.0 - - 10 - - - -
29/01:00am 22.9 CALM 0 - 1012.1 - 0.0 - - 9 - - - -
29/12:38am 23.0 CALM 0 - 1012.0 - 0.0 - - 10 - - - -
29/12:30am 23.0 CALM 0 - 1012.0 - 0.0 - - 9 - - - -
29/12:20am 23.0 CALM 0 - 1012.0 - 0.0 - - 5 - - - -
29/12:00am 23.4 CALM 0 - 1012.6 - 0.0 - Mostly clear 8 - - - -
 
Date/Time
WST
Temp
°C
Wind Pressure Rain since
9am
mm
Weather Cloud Vis
km
Sea
Height
m
Swell
Dir  Spd
kts
Gust
kts
hPa Trend Height
m
Period
s
Dir
28/11:30pm 24.0 CALM 0 - 1013.0 - 0.0 - Partly cloudy 10 - - - -
28/11:00pm 24.3 CALM 0 - 1012.8 - 0.0 - - 9 - - - -
28/10:30pm 25.0 NNE 3 - 1013.0 - 0.0 - - 9 - - - -
28/10:00pm 25.7 N 4 - 1012.9 - 0.0 - Partly cloudy 10 - - - -
28/09:30pm 26.0 N 3 - 1013.0 - 0.0 - - 10 - - - -
28/09:00pm 25.8 NNE 3 - 1012.8 - 0.0 - - 10 - - - -
28/08:30pm 26.0 NNE 4 - 1013.0 - 0.0 - - 10 - - - -
28/08:00pm 26.3 N 6 - 1012.6 - 0.0 - - 10 - - - -
28/07:30pm 26.0 N 5 - 1012.0 - 0.0 - Partly cloudy 10 - - - -
28/07:00pm 26.5 N 6 - 1012.0 - 0.0 - Partly cloudy 10 - - - -
28/06:30pm 27.0 N 6 - 1011.0 - 0.0 - - 10 - - - -
28/06:00pm 26.7 N 8 - 1011.3 - 0.0 - - 10 - - - -
28/05:30pm 27.0 NNE 6 - 1011.0 - 0.0 - - 10 - - - -
28/05:00pm 27.4 NNE 8 - 1010.8 - 0.0 - Partly cloudy 10 - - - -
28/04:30pm 28.0 N 8 - 1011.0 - 0.0 - - 10 - - - -
28/04:00pm 28.5 N 8 - 1010.8 - 0.0 - - 10 - - - -
28/03:30pm 29.0 N 10 - 1011.0 - 0.0 - - 10 - - - -
28/03:00pm 29.0 N 11 - 1010.5 - 0.0 - - 10 - - - -
28/02:30pm 29.0 N 11 - 1010.0 - 0.0 - - 10 - - - -
28/02:00pm 29.6 NNW 11 - 1010.6 - 0.0 - - 10 - - - -
28/01:30pm 31.0 NNW 10 - 1011.0 - 0.0 - - 10 - - - -
28/01:00pm 30.3 N 10 - 1011.4 - 0.0 - - 10 - - - -
28/12:30pm 31.0 N 9 - 1012.0 - 0.0 - - 10 - - - -
28/12:00pm 30.9 NNW 11 - 1012.1 - 0.0 - - 10 - - - -
28/11:30am 31.0 N 11 - 1012.0 - 0.0 - Partly cloudy 10 - - - -
28/11:00am 29.8 N 8 - 1012.9 - 0.0 - Partly cloudy 10 - - - -
28/10:30am 30.0 NNE 7 - 1013.0 - 0.0 - Partly cloudy 10 - - - -
28/10:00am 31.0 ENE 5 - 1013.9 - 0.0 - Partly cloudy 10 - - - -
28/09:30am 30.0 E 6 - 1014.0 - 0.0 - - 10 - - - -
28/09:00am 29.9 ENE 5 - 1014.6 - 0.0 - - 10 - - - -
28/08:30am 29.0 NE 5 - 1015.0 - 0.0 - - 10 - - - -
28/08:00am 27.8 ENE 5 - 1014.7 - 0.0 - - 10 - - - -
28/07:30am 27.0 E 5 - 1014.0 - 0.0 - - 10 - - - -
28/07:00am 26.0 E 5 - 1014.7 - 0.0 - - 10 - - - -
28/06:30am 24.0 ESE 3 - 1014.0 - 0.0 - - 9 - - - -
28/06:00am 23.2 SE 4 - 1014.0 - 0.0 - - 6 - - - -
28/05:30am 23.0 SSE 4 - 1013.0 - 0.0 - - 9 - - - -
28/05:00am 23.0 SSE 4 - 1013.4 - 0.0 - - 10 - - - -
28/04:30am 23.0 SE 3 - 1013.0 - 0.0 - - 9 - - - -
28/04:09am 23.0 SE 3 - 1013.0 - 0.0 - Partly cloudy 9 - - - -
28/04:00am 23.0 ESE 3 - 1013.1 - 0.0 - Partly cloudy 6 - - - -
28/03:51am 23.0 ESE 3 - 1013.0 - 0.0 - Partly cloudy 5 - - - -
28/03:30am 23.0 ESE 3 - 1013.0 - 0.0 - Partly cloudy 7 - - - -
28/03:00am 23.3 E 3 - 1013.2 - 0.0 - - 9 - - - -
28/02:30am 24.0 ESE 3 - 1013.0 - 0.0 - Partly cloudy 9 - - - -
28/02:00am 23.8 SSE 3 - 1013.4 - 0.0 - - 9 - - - -
28/01:30am 24.0 ESE 4 - 1013.0 - 0.0 - Partly cloudy 10 - - - -
28/01:00am 24.2 CALM 0 - 1013.7 - 0.0 - Partly cloudy 10 - - - -
28/12:30am 25.0 CALM 0 - 1014.0 - 0.0 - - 10 - - - -
28/12:00am 25.3 ENE 3 - 1014.1 - 0.0 - Partly cloudy 10 - - - -
 
Date/Time
WST
Temp
°C
Wind Pressure Rain since
9am
mm
Weather Cloud Vis
km
Sea
Height
m
Swell
Dir  Spd
kts
Gust
kts
hPa Trend Height
m
Period
s
Dir
27/11:30pm 25.0 ENE 5 - 1014.0 - 0.0 - Partly cloudy 10 - - - -
27/11:00pm 25.5 ENE 5 - 1014.3 - 0.0 - Partly cloudy 10 - - - -
27/10:50pm 26.0 ENE 5 - 1014.0 - 0.0 - Partly cloudy 10 - - - -
27/10:40pm 26.0 ENE 5 - 1014.0 - 0.0 - Partly cloudy 5 - - - -
27/10:30pm 26.0 ENE 6 - 1014.0 - 0.0 - Partly cloudy 10 - - - -
27/10:00pm 25.9 ENE 5 - 1014.6 - 0.0 - Cloudy 10 - - - -
27/09:30pm 26.0 ENE 4 - 1015.0 - 0.0 - - 10 - - - -
27/09:00pm 25.9 NE 5 - 1014.5 - 0.0 - Mostly clear 10 - - - -
27/08:30pm 26.0 ENE 4 - 1014.0 - 0.0 - - 10 - - - -
27/08:00pm 26.2 ENE 4 - 1014.2 - 0.0 - - 10 - - - -
27/07:30pm 26.0 NE 5 - 1014.0 - 0.0 - - 10 - - - -
27/07:00pm 26.4 NE 5 - 1013.5 - 0.0 - - 10 - - - -
27/06:30pm 27.0 NNE 5 - 1013.0 - 0.0 - - 10 - - - -
27/06:00pm 26.8 N 6 - 1012.6 - 0.0 - - 9 - - - -
27/05:30pm 27.0 N 7 - 1012.0 - 0.0 - - 10 - - - -
27/05:00pm 27.7 N 7 - 1012.2 - 0.0 - - 10 - - - -
27/04:30pm 29.0 N 8 - 1012.0 - 0.0 - - 10 - - - -
27/04:00pm 29.2 N 9 - 1011.9 - 0.0 - - 10 - - - -
27/03:30pm 30.0 N 9 - 1011.0 - 0.0 - - 10 - - - -
27/03:00pm 29.6 N 10 - 1011.6 - 0.0 - - 10 - - - -
27/02:30pm 30.0 N 10 - 1012.0 - 0.0 - - 10 - - - -
27/02:00pm 30.4 N 9 - 1011.9 - 0.0 - - 10 - - - -
27/01:30pm 31.0 N 10 - 1012.0 - 0.0 - - 10 - - - -
27/01:00pm 30.9 N 11 - 1012.2 - 0.0 - - 10 - - - -
27/12:30pm 31.0 N 10 - 1012.0 - 0.0 - Partly cloudy 10 - - - -
27/12:00pm 31.0 ENE 9 - 1013.1 - 0.0 - - 10 - - - -
27/11:30am 31.0 ENE 9 - 1014.0 - 0.0 - - 10 - - - -
27/11:00am 30.4 E 8 - 1014.2 - 0.0 - - 10 - - - -
27/10:30am 30.0 E 10 - 1015.0 - 0.0 - - 10 - - - -
27/10:00am 29.1 E 8 - 1015.3 - 0.0 - Partly cloudy 10 - - - -
27/09:30am 29.0 ENE 9 - 1015.0 - 0.0 - - 10 - - - -
27/09:00am 28.4 NE 8 - 1015.5 - 0.0 - - 10 - - - -
27/08:30am 28.0 ENE 7 - 1015.0 - 0.0 - - 10 - - - -
27/08:00am 27.3 E 5 - 1015.2 - 0.0 - - 9 - - - -
27/07:30am 27.0 ESE 6 - 1015.0 - 0.0 - - 9 - - - -
27/07:00am 25.0 SE 4 - 1014.8 - 0.0 - - 10 - - - -
27/06:30am 23.0 ESE 3 - 1014.0 - 0.0 - - 10 - - - -
27/06:00am 20.9 ESE 4 - 1014.1 - 0.0 - - 10 - - - -
27/05:30am 21.0 ESE 4 - 1014.0 - 0.0 - - 10 - - - -
27/05:00am 21.6 ESE 4 - 1013.5 - 0.0 - - 10 - - - -
27/04:30am 21.0 ESE 4 - 1013.0 - 0.0 - - 10 - - - -
27/04:00am 21.3 ESE 3 - 1013.1 - 0.0 - - 10 - - - -
27/03:30am 21.0 ESE 4 - 1013.0 - 0.0 - - 10 - - - -
27/03:00am 21.7 ESE 4 - 1013.1 - 0.0 - - 10 - - - -
27/02:30am 21.0 ESE 4 - 1013.0 - 0.0 - - 10 - - - -
27/02:00am 21.4 E 4 - 1012.9 - 0.0 - - 10 - - - -
27/01:30am 21.0 CALM 0 - 1013.0 - 0.0 - - 10 - - - -
27/01:00am 20.8 ESE 2 - 1013.3 - 0.0 - - 10 - - - -
27/12:30am 21.0 CALM 0 - 1013.0 - 0.0 - - 10 - - - -
27/12:00am 21.9 CALM 0 - 1013.4 - 0.0 - - 10 - - - -
 
Date/Time
WST
Temp
°C
Wind Pressure Rain since
9am
mm
Weather Cloud Vis
km
Sea
Height
m
Swell
Dir  Spd
kts
Gust
kts
hPa Trend Height
m
Period
s
Dir
26/11:30pm 22.0 SE 4 - 1013.0 - 0.0 - - 10 - - - -
26/11:00pm 22.5 E 3 - 1013.6 - 0.0 - - 10 - - - -
26/10:30pm 23.0 ESE 4 - 1013.0 - 0.0 - - 9 - - - -
26/10:00pm 24.6 E 4 - 1013.7 - 0.0 - - 10 - - - -
26/09:30pm 25.0 E 5 - 1013.0 - 0.0 - - 10 - - - -
26/09:00pm 25.4 ENE 5 - 1013.6 - 0.0 - - 10 - - - -
26/08:30pm 26.0 ENE 5 - 1013.0 - 0.0 - - 10 - - - -
26/08:00pm 26.3 NE 5 - 1013.4 - 0.0 - - 10 - - - -
26/07:30pm 27.0 NE 6 - 1013.0 - 0.0 - - 10 - - - -
26/07:00pm 27.0 NE 6 - 1013.0 - 0.0 - - 10 - - - -
26/06:30pm 27.0 NE 7 - 1012.0 - 0.0 - - 10 - - - -
26/06:00pm 27.8 NE 8 - 1011.9 - 0.0 - - 10 - - - -
26/05:30pm 28.0 NE 10 - 1011.0 - 0.0 - - 10 - - - -

Other Formats:

Comma delimited format used in spreadsheet applications
http://www.bom.gov.au/fwo/IDW60701/IDW60701.95101.axf

JavaScript Object Notation format (JSON) in row-major order
http://www.bom.gov.au/fwo/IDW60701/IDW60701.95101.json